University AP, Davis, CA, CA

1:36 PM PST on December 06, 2019 (GMT -0800)
University AP, Davis, CA

Weather History for KEDU - October, 2019

Change the Weather History Date:

Thursday, October 3, 2019

  Actual Average (WUND) Record (WUND)
Temperature  
Mean Temperature 59 °F -  
Max Temperature 77 °F - - (-1)
Min Temperature 41 °F - - (-1)
Degree Days  
Heating Degree Days 6    
Growing Degree Days 9 (Base 50)    
Moisture  
Dew Point 40 °F    
Average Humidity 54    
Maximum Humidity 87    
Minimum Humidity 22    
Precipitation  
Precipitation 0.00 in - - ()
Sea Level Pressure  
Sea Level Pressure 29.95 in    
Wind  
Wind Speed 3 mph ()    
Max Wind Speed 16 mph    
Max Gust Speed 20 mph    
Visibility 10.0 miles    
Events      
Averages and records for this station are not official NWS values.
T = Trace of Precipitation, MM = Missing Value Source: Averaged Metar Reports

Daily Weather History Graph

Daily Weather History Graph

Search for Another Location

Airport or City:

Astronomy

Oct. 03, 2019 Rise Set
Actual Time 7:04 AM PDT 6:47 PM PDT
Civil Twilight 6:38 AM PDT 7:13 PM PDT
Nautical Twilight 6:07 AM PDT 7:44 PM PDT
Astronomical Twilight 5:36 AM PDT 8:15 PM PDT
Moon 12:38 PM PDT (10/3) 10:34 PM PDT (10/3)
Length of Visible Light 12h 35m
Length of Day
11h 42m
Waxing Crescent, 31% of the Moon is Illuminated
Oct 3
Waxing Crescent
Oct 5
First Quarter
Oct 13
Full
Oct 21
Last Quarter
Oct 27
New

Hourly Weather History & Observations

Time (PDT) Temp. Windchill Dew Point Humidity Pressure Visibility Wind Dir Wind Speed Gust Speed Precip Events Conditions
12:15 AM 51.8 °F - 39.2 °F 62% 29.95 in 10.0 mi Calm Calm - N/A   Clear
12:35 AM 50.0 °F - 37.4 °F 62% 29.95 in 10.0 mi Calm Calm - N/A   Clear
12:55 AM 50.0 °F - 37.4 °F 62% 29.95 in 10.0 mi Calm Calm - N/A   Clear
1:15 AM 48.2 °F - 37.4 °F 66% 29.95 in 10.0 mi Calm Calm - N/A   Clear
1:35 AM 48.2 °F - 39.2 °F 71% 29.95 in 10.0 mi South 3.5 mph - N/A   Clear
1:55 AM 50.0 °F - 37.4 °F 62% 29.95 in 10.0 mi Calm Calm - N/A   Clear
2:15 AM 48.2 °F - 37.4 °F 66% 29.95 in 10.0 mi Calm Calm - N/A   Clear
2:40 AM 48.2 °F - 37.4 °F 66% 29.94 in 10.0 mi South 3.5 mph - N/A   Clear
2:55 AM 48.2 °F - 37.4 °F 66% 29.95 in 10.0 mi Calm Calm - N/A   Clear
3:20 AM 46.4 °F - 37.4 °F 71% 29.95 in 10.0 mi Calm Calm - N/A   Clear
3:35 AM 46.4 °F - 37.4 °F 71% 29.95 in 10.0 mi Calm Calm - N/A   Clear
3:55 AM 46.4 °F - 37.4 °F 71% 29.94 in 10.0 mi Calm Calm - N/A   Clear
4:15 AM 44.6 °F 43.1 °F 37.4 °F 76% 29.94 in 10.0 mi SSE 3.5 mph - N/A   Clear
4:35 AM 46.4 °F - 39.2 °F 76% 29.95 in 10.0 mi Calm Calm - N/A   Clear
4:55 AM 46.4 °F - 37.4 °F 71% 29.95 in 10.0 mi Calm Calm - N/A   Clear
5:15 AM 46.4 °F - 37.4 °F 71% 29.95 in 10.0 mi Calm Calm - N/A   Clear
5:35 AM 44.6 °F - 35.6 °F 71% 29.94 in 10.0 mi Calm Calm - N/A   Clear
5:55 AM 44.6 °F - 37.4 °F 76% 29.95 in 10.0 mi Calm Calm - N/A   Clear
6:20 AM 44.6 °F - 37.4 °F 76% 29.95 in 10.0 mi Calm Calm - N/A   Clear
6:35 AM 44.6 °F - 35.6 °F 71% 29.96 in 10.0 mi Calm Calm - N/A   Clear
7:00 AM 41.0 °F - 37.4 °F 87% 29.97 in 10.0 mi Calm Calm - N/A   Clear
7:15 AM 41.0 °F 39.0 °F 35.6 °F 81% 29.97 in 10.0 mi SSW 3.5 mph - N/A   Clear
7:40 AM 42.8 °F - 35.6 °F 76% 29.98 in 10.0 mi Calm Calm - N/A   Clear
7:55 AM 44.6 °F - 37.4 °F 76% 29.98 in 10.0 mi Calm Calm - N/A   Clear
8:15 AM 48.2 °F - 39.2 °F 71% 29.98 in 10.0 mi Calm Calm - N/A   Clear
8:35 AM 50.0 °F - 41.0 °F 71% 29.98 in 10.0 mi WSW 3.5 mph - N/A   Clear
8:55 AM 51.8 °F - 41.0 °F 67% 29.99 in 10.0 mi West 3.5 mph - N/A   Clear
9:15 AM 53.6 °F - 41.0 °F 62% 29.99 in 10.0 mi Calm Calm - N/A   Clear
9:35 AM 57.2 °F - 41.0 °F 55% 29.99 in 10.0 mi WSW 3.5 mph - N/A   Clear
9:55 AM 59.0 °F - 41.0 °F 51% 29.99 in 10.0 mi West 4.6 mph - N/A   Clear
10:15 AM 59.0 °F - 39.2 °F 48% 30.00 in 10.0 mi WNW 4.6 mph - N/A   Clear
10:40 AM 62.6 °F - 41.0 °F 45% 30.00 in 10.0 mi WNW 3.5 mph - N/A   Clear
10:55 AM 64.4 °F - 39.2 °F 40% 29.99 in 10.0 mi Calm Calm - N/A   Clear
11:20 AM 66.2 °F - 39.2 °F 37% 29.99 in 10.0 mi WSW 3.5 mph - N/A   Clear
11:35 AM 66.2 °F - 39.2 °F 37% 29.98 in 10.0 mi WSW 5.8 mph - N/A   Clear
11:55 AM 68.0 °F - 39.2 °F 35% 29.98 in 10.0 mi NNW 5.8 mph - N/A   Clear
12:20 PM 68.0 °F - 39.2 °F 35% 29.97 in 10.0 mi NW 3.5 mph - N/A   Clear
12:35 PM 69.8 °F - 39.2 °F 33% 29.97 in 10.0 mi WSW 3.5 mph - N/A   Clear
1:00 PM 71.6 °F - 39.2 °F 31% 29.96 in 10.0 mi South 6.9 mph - N/A   Clear
1:15 PM 71.6 °F - 39.2 °F 31% 29.95 in 10.0 mi SSE 4.6 mph - N/A   Clear
1:40 PM 73.4 °F - 37.4 °F 27% 29.95 in 10.0 mi South 5.8 mph - N/A   Clear
1:55 PM 73.4 °F - 37.4 °F 27% 29.94 in 10.0 mi SSW 6.9 mph - N/A   Clear
2:15 PM 75.2 °F - 37.4 °F 25% 29.94 in 10.0 mi South 5.8 mph - N/A   Clear
2:35 PM 75.2 °F - 37.4 °F 25% 29.93 in 10.0 mi SSE 5.8 mph - N/A   Clear
2:55 PM 75.2 °F - 37.4 °F 25% 29.93 in 10.0 mi South 10.4 mph - N/A   Clear
3:15 PM 75.2 °F - 37.4 °F 25% 29.92 in 10.0 mi South 10.4 mph - N/A   Clear
3:35 PM 75.2 °F - 35.6 °F 24% 29.92 in 10.0 mi South 6.9 mph - N/A   Clear
3:55 PM 77.0 °F - 35.6 °F 22% 29.91 in 10.0 mi South 9.2 mph - N/A   Clear
4:15 PM 77.0 °F - 37.4 °F 24% 29.91 in 10.0 mi South 9.2 mph - N/A   Clear
4:40 PM 77.0 °F - 39.2 °F 26% 29.91 in 10.0 mi South 11.5 mph - N/A   Clear
4:55 PM 77.0 °F - 44.6 °F 32% 29.90 in 10.0 mi South 9.2 mph - N/A   Clear
5:20 PM 77.0 °F - 42.8 °F 29% 29.90 in 10.0 mi SW 13.8 mph - N/A   Clear
5:35 PM 75.2 °F - 42.8 °F 31% 29.91 in 10.0 mi SW 16.1 mph 19.6 mph N/A   Clear
6:00 PM 73.4 °F - 44.6 °F 36% 29.91 in 10.0 mi SSW 11.5 mph - N/A   Clear
6:15 PM 73.4 °F - 44.6 °F 36% 29.91 in 10.0 mi SSW 11.5 mph - N/A   Clear
6:35 PM 71.6 °F - 46.4 °F 41% 29.91 in 10.0 mi SSW 11.5 mph - N/A   Clear
6:55 PM 68.0 °F - 46.4 °F 46% 29.92 in 10.0 mi SSW 10.4 mph - N/A   Clear
7:15 PM 68.0 °F - 46.4 °F 46% 29.92 in 10.0 mi SSW 9.2 mph - N/A   Clear
7:35 PM 66.2 °F - 46.4 °F 49% 29.93 in 10.0 mi SSW 9.2 mph - N/A   Clear
7:55 PM 64.4 °F - 46.4 °F 52% 29.93 in 10.0 mi SSW 6.9 mph - N/A   Clear
8:15 PM 64.4 °F - 44.6 °F 49% 29.94 in 10.0 mi SSW 6.9 mph - N/A   Clear
8:35 PM 62.6 °F - 44.6 °F 52% 29.94 in 10.0 mi SSW 5.8 mph - N/A   Clear
8:55 PM 62.6 °F - 44.6 °F 52% 29.95 in 10.0 mi SSW 8.1 mph - N/A   Clear
9:20 PM 59.0 °F - 44.6 °F 59% 29.95 in 10.0 mi SSW 6.9 mph - N/A   Clear
9:35 PM 59.0 °F - 44.6 °F 59% 29.95 in 10.0 mi SSW 5.8 mph - N/A   Clear
10:00 PM 57.2 °F - 44.6 °F 63% 29.96 in 10.0 mi Calm Calm - N/A   Clear
10:15 PM 55.4 °F - 44.6 °F 67% 29.97 in 10.0 mi Calm Calm - N/A   Clear
10:40 PM 55.4 °F - 44.6 °F 67% 29.97 in 10.0 mi Calm Calm - N/A   Clear
10:55 PM 53.6 °F - 44.6 °F 72% 29.98 in 10.0 mi South 3.5 mph - N/A   Clear
11:20 PM 53.6 °F - 44.6 °F 72% 29.98 in 10.0 mi Calm Calm - N/A   Clear
11:35 PM 50.0 °F - 42.8 °F 76% 29.98 in 10.0 mi WSW 3.5 mph - N/A   Clear
11:55 PM 53.6 °F - 42.8 °F 67% 29.99 in 10.0 mi Calm Calm - N/A   Clear